Regional Weather Roundup
Issued by NWS Northern Indiana

Home | Current Version | Previous Version | Text Only | Print | Product List | Glossary Off
Versions: 1 2 3 4 5 6 7 8 9 10 11 12 13 14 15 16 17 18 19 20 21 22 23 24 25 26 27 28 29 30 31 32 33 34 35 36 37 38 39 40 41 42 43 44 45 46 47 48 49 50

000
ASUS43 KIWX 210900
RWRIWX

KIWX WEATHER ROUNDUP
NATIONAL WEATHER SERVICE NORTHERN INDIANA
500 AM EDT MON APR 21 2014

NOTE: "FAIR" INDICATES FEW OR NO CLOUDS BELOW 12,000 FEET WITH NO
SIGNIFICANT WEATHER AND/OR OBSTRUCTIONS TO VISIBILITY.

* THESE STATIONS ARE NOT UNDER NWS QUALITY CONTROL. THEY ALSO MAY NOT
  REPORT WEATHER SUCH AS PRECIPITATION OR FOG.

INZ001>027-211000-
NORTHERN INDIANA

CITY           SKY/WX    TMP DP  RH WIND       PRES   REMARKS
GARY*          MOCLDY    63  40  42 S5        30.01F
VALPARAISO     MOCLDY    55  37  50 S6        30.03F
LAPORTE*       PTCLDY    51  32  48 CALM      30.03F
SOUTH BEND     PTCLDY    54  32  43 S5        30.04F
GOSHEN         CLEAR     47  38  71 CALM      30.04S
MONTICELLO*    PTCLDY    49  43  79 CALM      30.04S
ANGOLA*        CLEAR     45  43  93 CALM      30.04F
FORT WAYNE     MOCLDY    46  37  71 S3        30.06S
PERU/GRISSOM   PTCLDY    49  40  70 S3        30.04F

$$
INZ028>050-211000-
CENTRAL INDIANA

CITY           SKY/WX    TMP DP  RH WIND       PRES   REMARKS
LAFAYETTE      PTCLDY    49  41  74 E3        30.04F
KOKOMO*        PTCLDY    48  39  71 CALM      30.06S
MUNCIE*        PTCLDY    51  38  60 S3        30.06S
INDIANAPOLIS   PTCLDY    51  40  65 CALM      30.05F

$$
MIZ043>046-050>051-056>058-064>065-071>073-077>080-211000-
SOUTHWEST LOWER MICHIGAN

CITY           SKY/WX    TMP DP  RH WIND       PRES   REMARKS
BATTLE CREEK   CLEAR     50  34  54 S8        30.03F
BENTON HARBOR  MOCLDY    59  33  37 S7        30.01F
COLDWATER*     CLEAR     46  40  80 SE3       30.03F
HILLSDALE*     CLEAR     49  35  58 S5        30.04F
HOLLAND        MOCLDY    59  39  47 S6        30.00F
GRAND RAPIDS   MOCLDY    57  33  40 S7        30.00F
KALAMAZOO      PTCLDY    54  35  48 S6        30.03F
STURGIS*       PTCLDY    52  34  50 CALM      30.03F
THREE RIVERS*  FAIR      47  41  81 CALM      30.04S

$$
OHZ001>008-015>018-024>025-211000-
NORTHWEST OHIO

CITY           SKY/WX    TMP DP  RH WIND       PRES   REMARKS
DEFIANCE       PTCLDY    47  37  68 CALM      30.05F
FINDLAY        CLEAR     48  38  68 SE3       30.05S
TOLEDO EXPRESS CLEAR     44  38  79 CALM      30.05S
TOLEDO METCALF CLEAR     47  37  68 CALM      30.06S
LIMA           CLEAR     50  37  61 S8        30.06S

$$
&&



USA.gov is the U.S. government's official web portal to all federal, state and local government web resources and services.